STARLINK-11529, 62599

Orbit data source: Space-Track

STARLINK-11529, 62599 is a payload satellite owned by SpaceX/Seattle (US) in LEO that was launched on Mon, 13 Jan 2025 UTC via an FALCON 9 launch vehicle from the Air Force Eastern Test Range (AFETR). Payload-class satellites include a variety of spacecraft equipped with specific instruments for various scientific and technological missions. These include communications satellites like Starlink; space stations such as the ISS; scientific satellites like the Hubble; Earth observation satellites from companies like Planet Labs, Umbra, and HawkEye 360; GPS; miniature CubeSats for education and research; and military/defense satellites.

Loading next visibility...
Identifier
62599, 2025-008N
Orbit
LEO
Country
Flag of USUS
Related business
Manufacturer
SpaceX/Seattle
Mission
Operational Commercial Communications
Bus & Motor
STARLINK V2MD, Unknown motor
Mass
960 kg wet, ~910 kg dry
Launch date (UTC)
2025-01-13 (2 years ago)
Launch vehicle
FALCON 9
Launch site
Air Force Eastern Test Range (AFETR)
Object type
Payload
Rocket body
Debris
Shape & HBR
Box + 2 Pan, 18.1 m
Radar Cross Section
36.964 m², Large (>1 m²)

Expand to show TLE details & history
Last TLE update: 8 hours ago

TLE from 8 hours ago
0 STARLINK-11529
1 62599U 25008N   26264.26666225  .00217137  00000-0  16428-2 0  9995
2 62599  43.0002  27.2684 0002624 290.2403  69.8182 15.70969625 98051
Epoch: 2026-09-21T06:23Z
TLE epoch observation values (Epoch: 2026-09-21T06:23:59.618Z)
Latitude
-0.00005°
Longitude
-68.87901°
Altitude
355.287 km
Speed
7.698 km/s
True Right ascension
01h 49m 04s
True Declination
0° 00' 00"
Sunlit
Object was in full shadow at epoch
Visualization orbit readout
Latitude
Unknown
Longitude
Unknown
Altitude
Unknown
Speed
Unknown
Apparent Right ascension
Unknown
Apparent Declination
Unknown
Sunlit
N/A
Visualization observer readout
Local Sidereal Time
07:21:56
Azimuth
Unknown
Elevation
Unknown
Doppler factor
Unknown
Orbital elements
Apogee altitude
359.874 km
Perigee altitude
356.339 km
Semi-major axis
6,736.243 km
Eccentricity
0.00026
Inclination
43.0002°
RAAN
27.2684°
Arg. of periapsis
290.2403°
True anomaly
69.84643°
Mean anomaly
69.8182°
Eccentric anomaly
69.83231°
Mean motion
3.92569 °/min
Orbital period
91.7 mins
BSTAR
0.0016428
Loading maneuver chart data...
Computing Atmospheric mass density...
Loading historical data...
Loading historical data...
Loading historical data...
Loading historical data...
Loading historical data...
Loading historical data...
Loading historical data...

Documentation

Showing up to 5 results
|